[Date Prev][Date Next][Thread Prev][Thread Next] - [Date Index][Thread Index][Author Index]
2 Line ISS Keps 8-15
- Subject: [sarex] 2 Line ISS Keps 8-15
- From: "Dave Larsen PhD" <doc@xxxxxxxxxxx>
- Date: Wed, 15 Aug 2001 03:53:57 -0700
ISS
1 25544U 98067A 01227.13950787 .00355965 00000-0 45388-2 0 3472
2 25544 51.6362 151.4290 0010031 8.8091 130.3387 15.57501802156289
STS has moved ISS higher.
----
Via the sarex mailing list at AMSAT.ORG courtesy of AMSAT-NA.
To unsubscribe, send "unsubscribe sarex" to Majordomo@amsat.org
AMSAT Home